This is the latest recevied weather packets stored in our database for station/object N8AMF. If no packets are shown the sender has not sent any weather packets the latest 10 day(s).
| Time | Temp. | Humidity | Pressure | Rain* | Wind** | Luminosity | Snow |
|---|---|---|---|---|---|---|---|
| 1777944838 | 20° C | 56% | 1002.7 hPa | 0 mm | - | 0 W/m² | - |
| 1777944537 | 20.56° C | 55% | 1002.5 hPa | 0 mm | - | 0 W/m² | - |
| 1777944234 | 20.56° C | 55% | 1002.6 hPa | 0 mm | - | 0 W/m² | - |
| 1777943930 | 20.56° C | 54% | 1002.4 hPa | 0 mm | - | 0 W/m² | - |
| 1777943627 | 20.56° C | 54% | 1002.4 hPa | 0 mm | - | 0 W/m² | - |
| 1777943323 | 20.56° C | 55% | 1002.5 hPa | 0 mm | - | 0 W/m² | - |
| 1777943019 | 20.56° C | 54% | 1002.4 hPa | 0 mm | - | 0 W/m² | - |
| 1777942716 | 20.56° C | 52% | 1002.4 hPa | 0 mm | - | 0 W/m² | - |
| 1777942412 | 20.56° C | 52% | 1002.1 hPa | 0 mm | - | 0 W/m² | - |
| 1777942110 | 20.56° C | 53% | 1002.1 hPa | 0 mm | - | 0 W/m² | - |
| 1777941806 | 20.56° C | 52% | 1002.2 hPa | 0 mm | - | 0 W/m² | - |
| 1777941504 | 21.11° C | 51% | 1002 hPa | 0 mm | - | 1 W/m² | - |
| 1777941201 | 20.56° C | 52% | 1001.8 hPa | 0 mm | - | 2 W/m² | - |
| 1777940896 | 21.11° C | 52% | 1002 hPa | 0 mm | - | 3 W/m² | - |
| 1777940594 | 21.11° C | 50% | 1001.9 hPa | 0 mm | - | 5 W/m² | - |
| 1777940292 | 21.67° C | 50% | 1002 hPa | 0 mm | - | 6 W/m² | - |
| 1777939989 | 21.67° C | 49% | 1001.8 hPa | 0 mm | - | 8 W/m² | - |
| 1777939686 | 21.67° C | 49% | 1001.5 hPa | 0 mm | - | 10 W/m² | - |
| 1777939384 | 21.67° C | 50% | 1001.5 hPa | 0 mm | - | 12 W/m² | - |
| 1777939080 | 21.67° C | 49% | 1001.3 hPa | 0 mm | - | 14 W/m² | - |
| 1777938776 | 21.67° C | 51% | 1001.5 hPa | 0 mm | - | 17 W/m² | - |
| 1777938474 | 21.67° C | 50% | 1001.5 hPa | 0 mm | - | 19 W/m² | - |
| 1777938171 | 21.67° C | 53% | 1001.5 hPa | 0 mm | - | 21 W/m² | - |
| 1777937867 | 21.67° C | 53% | 1001.1 hPa | 0 mm | - | 27 W/m² | - |
| 1777937563 | 22.22° C | 53% | 1001.2 hPa | 0 mm | - | 33 W/m² | - |
* Rain latest hour (hover to see other rain measurements)
** Current wind speed in m/s (hover to see current wind gust speed)